Погода в Темижбекском

Россия / Ставропольский край     45°26′44″N   41°02′18″E
темп.,
°C
ветер,
м/с
пор.,
м/с
влажн.,
%
обл.,
%
осадки,
мм/ч
давл.,
гПа
погр.,
м
16 мая, вс
вс1600:00+19ссв46925 0.2 101196
03:00+18всв22945 0.2 101138
06:00+19св249381 0.0 101096
09:00+23св457374 0.0 1009443
12:00+25всв565536 0.0 1008696
15:00+27в686399 0.0 10061206
18:00+24в497167 0.0 1005250
21:00+21в61461100 0.0 1004282
17 мая, пн
пн1700:00+18в51253100 0.0 1003237
03:00+16в486233 0.0 1003126
06:00+16вюв227715 0.0 100444
09:00+21сз45725 0.0 1006517
12:00+24сз6863100 0.0 1007998
15:00+23з7864100 0.0 1009935
18:00+21зсз5879100 0.0 1008419
21:00+17зюз41091100 0.6 1010262
18 мая, вт
вт1800:00+17з71297100 4.2 1010488
03:00+14зсз3996100 8.0 1011443
06:00+14юз379542 0.1 1013426
09:00+18з457718 0.1 1013712
12:00+21з566526 0.0 10131191
15:00+22з566296 0.1 10131633
18:00+21ссз13710 0.2 1013430
21:00+16зюз3385100 0.3 101445
19 мая, ср
ср1900:00+15юз338899 0.0 101454
03:00+13ююз22895 0.0 101412
06:00+15юз1184100 0.0 101539
09:00+20вюв22674 0.0 1015478
12:00+23вюв23560 0.0 10141118
15:00+25вюв345398 0.0 10121358
18:00+23в4775100 0.0 1011241
21:00+19в41183100 0.0 1011210
20 мая, чт
чт2000:00+18вюв3679100 0.0 101088
03:00+16ю348141 0.0 101069
06:00+16зюз3594100 0.0 1012154
09:00+21с457789 0.0 1012449
12:00+25всв556866 0.0 1011869
15:00+27в47596 0.0 10091325
18:00+26в387199 0.0 1008242
21:00+22в4968100 0.0 1007145